owner,sensor,date,latitude,longitude,vertical_datum,sea_water_temperature,qcFlag 
TCOON,ioos:station:TCOON:013:1,2007-12-01T22:00:00Z,27.4847,-97.3181,0.0,22.4,11111222 
TCOON,ioos:station:TCOON:013:1,2007-12-01T23:00:00Z,27.4847,-97.3181,0.0,22.3,11111222 
TCOON,ioos:station:TCOON:013:1,2007-12-02T00:00:00Z,27.4847,-97.3181,0.0,22.2,11111222 
TCOON,ioos:station:TCOON:013:1,2007-12-02T01:00:00Z,27.4847,-97.3181,0.0,21.9,11111222 
TCOON,ioos:station:TCOON:013:1,2007-12-02T02:00:00Z,27.4847,-97.3181,0.0,21.8,11111222 
TCOON,ioos:station:TCOON:013:1,2007-12-02T03:00:00Z,27.4847,-97.3181,0.0,21.7,11111222 
TCOON,ioos:station:TCOON:013:1,2007-12-02T04:00:00Z,27.4847,-97.3181,0.0,21.7,11111222 
TCOON,ioos:station:TCOON:013:1,2007-12-02T05:00:00Z,27.4847,-97.3181,0.0,21.7,11111222 
TCOON,ioos:station:TCOON:013:1,2007-12-02T06:00:00Z,27.4847,-97.3181,0.0,21.6,11111222 
TCOON,ioos:station:TCOON:013:1,2007-12-02T07:00:00Z,27.4847,-97.3181,0.0,21.5,11111222 
TCOON,ioos:station:TCOON:013:1,2007-12-02T08:00:00Z,27.4847,-97.3181,0.0,21.4,11111222 
TCOON,ioos:station:TCOON:013:1,2007-12-02T09:00:00Z,27.4847,-97.3181,0.0,21.4,11111222 
TCOON,ioos:station:TCOON:013:1,2007-12-02T10:00:00Z,27.4847,-97.3181,0.0,21.4,11111222 
TCOON,ioos:station:TCOON:013:1,2007-12-02T11:00:00Z,27.4847,-97.3181,0.0,21.4,11111222 
TCOON,ioos:station:TCOON:013:1,2007-12-02T12:00:00Z,27.4847,-97.3181,0.0,21.4,11111222 
TCOON,ioos:station:TCOON:013:1,2007-12-02T13:00:00Z,27.4847,-97.3181,0.0,21.4,11111222 
TCOON,ioos:station:TCOON:013:1,2007-12-02T14:00:00Z,27.4847,-97.3181,0.0,21.5,11111222 
TCOON,ioos:station:TCOON:013:1,2007-12-02T15:00:00Z,27.4847,-97.3181,0.0,21.8,11111222 
TCOON,ioos:station:TCOON:013:1,2007-12-02T16:00:00Z,27.4847,-97.3181,0.0,22.1,11111222 
TCOON,ioos:station:TCOON:013:1,2007-12-02T17:00:00Z,27.4847,-97.3181,0.0,22.4,11111222 
TCOON,ioos:station:TCOON:013:1,2007-12-02T18:00:00Z,27.4847,-97.3181,0.0,22.7,11111222 
TCOON,ioos:station:TCOON:013:1,2007-12-02T19:00:00Z,27.4847,-97.3181,0.0,23.2,11111222 
TCOON,ioos:station:TCOON:013:1,2007-12-02T20:00:00Z,27.4847,-97.3181,0.0,23.5,11111222 
TCOON,ioos:station:TCOON:013:1,2007-12-02T21:00:00Z,27.4847,-97.3181,0.0,23.6,11111222 
TCOON,ioos:station:TCOON:013:1,2007-12-02T22:00:00Z,27.4847,-97.3181,0.0,23.5,11111222 
TCOON,ioos:station:TCOON:013:1,2007-12-02T23:00:00Z,27.4847,-97.3181,0.0,23.5,11111222 
TCOON,ioos:station:TCOON:013:1,2007-12-03T00:00:00Z,27.4847,-97.3181,0.0,23.4,11111222 
TCOON,ioos:station:TCOON:013:1,2007-12-03T01:00:00Z,27.4847,-97.3181,0.0,23.5,11111222 
TCOON,ioos:station:TCOON:013:1,2007-12-03T02:00:00Z,27.4847,-97.3181,0.0,23.6,11111222 
TCOON,ioos:station:TCOON:013:1,2007-12-03T03:00:00Z,27.4847,-97.3181,0.0,23.7,11111222 
TCOON,ioos:station:TCOON:013:1,2007-12-03T04:00:00Z,27.4847,-97.3181,0.0,23.7,11111222 
TCOON,ioos:station:TCOON:013:1,2007-12-03T05:00:00Z,27.4847,-97.3181,0.0,23.6,11111222 
TCOON,ioos:station:TCOON:013:1,2007-12-03T06:00:00Z,27.4847,-97.3181,0.0,23.5,11111222 
TCOON,ioos:station:TCOON:013:1,2007-12-03T07:00:00Z,27.4847,-97.3181,0.0,22.8,11111222 
TCOON,ioos:station:TCOON:013:1,2007-12-03T08:00:00Z,27.4847,-97.3181,0.0,22.5,11111222 
TCOON,ioos:station:TCOON:013:1,2007-12-03T09:00:00Z,27.4847,-97.3181,0.0,21.9,11111222 
TCOON,ioos:station:TCOON:013:1,2007-12-03T10:00:00Z,27.4847,-97.3181,0.0,21.8,11111222 
TCOON,ioos:station:TCOON:013:1,2007-12-03T11:00:00Z,27.4847,-97.3181,0.0,21.1,11111222 
TCOON,ioos:station:TCOON:013:1,2007-12-03T12:00:00Z,27.4847,-97.3181,0.0,20.4,11111222 
TCOON,ioos:station:TCOON:013:1,2007-12-03T13:00:00Z,27.4847,-97.3181,0.0,19.7,11111222 
TCOON,ioos:station:TCOON:013:1,2007-12-03T14:00:00Z,27.4847,-97.3181,0.0,19.0,11111222 
TCOON,ioos:station:TCOON:013:1,2007-12-03T15:00:00Z,27.4847,-97.3181,0.0,18.6,11111222 
TCOON,ioos:station:TCOON:013:1,2007-12-03T16:00:00Z,27.4847,-97.3181,0.0,18.4,11111222 
TCOON,ioos:station:TCOON:013:1,2007-12-03T17:00:00Z,27.4847,-97.3181,0.0,18.4,11111222 
TCOON,ioos:station:TCOON:013:1,2007-12-03T18:00:00Z,27.4847,-97.3181,0.0,18.5,11111222 
TCOON,ioos:station:TCOON:013:1,2007-12-03T19:00:00Z,27.4847,-97.3181,0.0,18.8,11111222 
TCOON,ioos:station:TCOON:013:1,2007-12-03T20:00:00Z,27.4847,-97.3181,0.0,18.9,11111222 
TCOON,ioos:station:TCOON:013:1,2007-12-03T21:00:00Z,27.4847,-97.3181,0.0,19.5,11111222 
TCOON,ioos:station:TCOON:013:1,2007-12-03T22:00:00Z,27.4847,-97.3181,0.0,19.3,11111222 
TCOON,ioos:station:TCOON:013:1,2007-12-03T23:00:00Z,27.4847,-97.3181,0.0,19.4,11111222 
TCOON,ioos:station:TCOON:013:1,2007-12-04T00:00:00Z,27.4847,-97.3181,0.0,19.4,11111222 
TCOON,ioos:station:TCOON:013:1,2007-12-04T01:00:00Z,27.4847,-97.3181,0.0,19.0,11111222 
TCOON,ioos:station:TCOON:013:1,2007-12-04T02:00:00Z,27.4847,-97.3181,0.0,18.7,11111222 
TCOON,ioos:station:TCOON:013:1,2007-12-04T03:00:00Z,27.4847,-97.3181,0.0,18.4,11111222 
TCOON,ioos:station:TCOON:013:1,2007-12-04T04:00:00Z,27.4847,-97.3181,0.0,17.5,11111222 
TCOON,ioos:station:TCOON:013:1,2007-12-04T05:00:00Z,27.4847,-97.3181,0.0,16.9,11111222 
TCOON,ioos:station:TCOON:013:1,2007-12-04T06:00:00Z,27.4847,-97.3181,0.0,16.4,11111222 
TCOON,ioos:station:TCOON:013:1,2007-12-04T07:00:00Z,27.4847,-97.3181,0.0,15.8,11111222 
TCOON,ioos:station:TCOON:013:1,2007-12-04T08:00:00Z,27.4847,-97.3181,0.0,15.7,11111222 
TCOON,ioos:station:TCOON:013:1,2007-12-04T09:00:00Z,27.4847,-97.3181,0.0,15.7,11111222 
TCOON,ioos:station:TCOON:013:1,2007-12-04T10:00:00Z,27.4847,-97.3181,0.0,15.8,11111222 
TCOON,ioos:station:TCOON:013:1,2007-12-04T11:00:00Z,27.4847,-97.3181,0.0,16.3,11111222 
TCOON,ioos:station:TCOON:013:1,2007-12-04T12:00:00Z,27.4847,-97.3181,0.0,16.5,11111222 
TCOON,ioos:station:TCOON:013:1,2007-12-04T13:00:00Z,27.4847,-97.3181,0.0,16.7,11111222 
TCOON,ioos:station:TCOON:013:1,2007-12-04T14:00:00Z,27.4847,-97.3181,0.0,16.7,11111222 
TCOON,ioos:station:TCOON:013:1,2007-12-04T15:00:00Z,27.4847,-97.3181,0.0,16.8,11111222 
TCOON,ioos:station:TCOON:013:1,2007-12-04T16:00:00Z,27.4847,-97.3181,0.0,17.0,11111222 
TCOON,ioos:station:TCOON:013:1,2007-12-04T17:00:00Z,27.4847,-97.3181,0.0,17.2,11111222 
TCOON,ioos:station:TCOON:013:1,2007-12-04T18:00:00Z,27.4847,-97.3181,0.0,16.6,11111222 
TCOON,ioos:station:TCOON:013:1,2007-12-04T19:00:00Z,27.4847,-97.3181,0.0,16.7,11111222 
TCOON,ioos:station:TCOON:013:1,2007-12-04T20:00:00Z,27.4847,-97.3181,0.0,17.1,11111222 
TCOON,ioos:station:TCOON:013:1,2007-12-04T21:00:00Z,27.4847,-97.3181,0.0,17.5,11111222 
TCOON,ioos:station:TCOON:013:1,2007-12-04T22:00:00Z,27.4847,-97.3181,0.0,17.7,11111222 
TCOON,ioos:station:TCOON:013:1,2007-12-04T23:00:00Z,27.4847,-97.3181,0.0,17.8,11111222 
TCOON,ioos:station:TCOON:013:1,2007-12-05T00:00:00Z,27.4847,-97.3181,0.0,17.7,11111222 
TCOON,ioos:station:TCOON:013:1,2007-12-05T01:00:00Z,27.4847,-97.3181,0.0,17.6,11111222 
TCOON,ioos:station:TCOON:013:1,2007-12-05T02:00:00Z,27.4847,-97.3181,0.0,17.4,11111222 
TCOON,ioos:station:TCOON:013:1,2007-12-05T03:00:00Z,27.4847,-97.3181,0.0,17.2,11111222 
TCOON,ioos:station:TCOON:013:1,2007-12-05T04:00:00Z,27.4847,-97.3181,0.0,17.1,11111222 
TCOON,ioos:station:TCOON:013:1,2007-12-05T05:00:00Z,27.4847,-97.3181,0.0,16.9,11111222 
TCOON,ioos:station:TCOON:013:1,2007-12-05T06:00:00Z,27.4847,-97.3181,0.0,16.9,11111222 
TCOON,ioos:station:TCOON:013:1,2007-12-05T07:00:00Z,27.4847,-97.3181,0.0,16.9,11111222 
TCOON,ioos:station:TCOON:013:1,2007-12-05T08:00:00Z,27.4847,-97.3181,0.0,16.9,11111222 
TCOON,ioos:station:TCOON:013:1,2007-12-05T09:00:00Z,27.4847,-97.3181,0.0,16.6,11111222 
TCOON,ioos:station:TCOON:013:1,2007-12-05T13:00:00Z,27.4847,-97.3181,0.0,16.1,11111222 
TCOON,ioos:station:TCOON:013:1,2007-12-05T14:00:00Z,27.4847,-97.3181,0.0,16.0,11111222 
TCOON,ioos:station:TCOON:013:1,2007-12-05T15:00:00Z,27.4847,-97.3181,0.0,16.0,11111222 
TCOON,ioos:station:TCOON:013:1,2007-12-05T16:00:00Z,27.4847,-97.3181,0.0,16.3,11111222 
TCOON,ioos:station:TCOON:013:1,2007-12-05T17:00:00Z,27.4847,-97.3181,0.0,16.7,11111222 
TCOON,ioos:station:TCOON:013:1,2007-12-05T18:00:00Z,27.4847,-97.3181,0.0,17.3,11111222 
TCOON,ioos:station:TCOON:013:1,2007-12-05T19:00:00Z,27.4847,-97.3181,0.0,18.1,11111222 
TCOON,ioos:station:TCOON:013:1,2007-12-05T20:00:00Z,27.4847,-97.3181,0.0,18.6,11111222 
TCOON,ioos:station:TCOON:013:1,2007-12-05T21:00:00Z,27.4847,-97.3181,0.0,18.8,11111222 
TCOON,ioos:station:TCOON:013:1,2007-12-05T22:00:00Z,27.4847,-97.3181,0.0,19.0,11111222 
TCOON,ioos:station:TCOON:013:1,2007-12-05T23:00:00Z,27.4847,-97.3181,0.0,19.1,11111222 
TCOON,ioos:station:TCOON:013:1,2007-12-06T00:00:00Z,27.4847,-97.3181,0.0,19.1,11111222 
TCOON,ioos:station:TCOON:013:1,2007-12-06T01:00:00Z,27.4847,-97.3181,0.0,19.2,11111222 
TCOON,ioos:station:TCOON:013:1,2007-12-06T02:00:00Z,27.4847,-97.3181,0.0,19.5,11111222 
TCOON,ioos:station:TCOON:013:1,2007-12-06T03:00:00Z,27.4847,-97.3181,0.0,19.5,11111222 
TCOON,ioos:station:TCOON:013:1,2007-12-06T04:00:00Z,27.4847,-97.3181,0.0,19.4,11111222 
TCOON,ioos:station:TCOON:013:1,2007-12-06T05:00:00Z,27.4847,-97.3181,0.0,19.2,11111222 
TCOON,ioos:station:TCOON:013:1,2007-12-06T06:00:00Z,27.4847,-97.3181,0.0,19.0,11111222 
TCOON,ioos:station:TCOON:013:1,2007-12-06T07:00:00Z,27.4847,-97.3181,0.0,18.7,11111222 
TCOON,ioos:station:TCOON:013:1,2007-12-06T08:00:00Z,27.4847,-97.3181,0.0,18.7,11111222 
TCOON,ioos:station:TCOON:013:1,2007-12-06T09:00:00Z,27.4847,-97.3181,0.0,18.7,11111222 
TCOON,ioos:station:TCOON:013:1,2007-12-06T10:00:00Z,27.4847,-97.3181,0.0,18.7,11111222 
TCOON,ioos:station:TCOON:013:1,2007-12-06T11:00:00Z,27.4847,-97.3181,0.0,18.7,11111222 
TCOON,ioos:station:TCOON:013:1,2007-12-06T12:00:00Z,27.4847,-97.3181,0.0,18.7,11111222 
TCOON,ioos:station:TCOON:013:1,2007-12-06T13:00:00Z,27.4847,-97.3181,0.0,18.7,11111222 
TCOON,ioos:station:TCOON:013:1,2007-12-06T15:00:00Z,27.4847,-97.3181,0.0,18.7,11111222 
TCOON,ioos:station:TCOON:013:1,2007-12-06T16:00:00Z,27.4847,-97.3181,0.0,18.9,11111222 
TCOON,ioos:station:TCOON:013:1,2007-12-06T17:00:00Z,27.4847,-97.3181,0.0,19.2,11111222 
TCOON,ioos:station:TCOON:013:1,2007-12-06T18:00:00Z,27.4847,-97.3181,0.0,19.5,11111222 
TCOON,ioos:station:TCOON:013:1,2007-12-06T19:00:00Z,27.4847,-97.3181,0.0,20.0,11111222 
TCOON,ioos:station:TCOON:013:1,2007-12-06T20:00:00Z,27.4847,-97.3181,0.0,20.7,11111222 
TCOON,ioos:station:TCOON:013:1,2007-12-06T21:00:00Z,27.4847,-97.3181,0.0,21.0,11111222 
TCOON,ioos:station:TCOON:013:1,2007-12-06T22:00:00Z,27.4847,-97.3181,0.0,21.2,11111222 
TCOON,ioos:station:TCOON:013:1,2007-12-06T23:00:00Z,27.4847,-97.3181,0.0,21.2,11111222 
TCOON,ioos:station:TCOON:013:1,2007-12-07T00:00:00Z,27.4847,-97.3181,0.0,21.1,11111222 
TCOON,ioos:station:TCOON:013:1,2007-12-07T01:00:00Z,27.4847,-97.3181,0.0,21.0,11111222 
TCOON,ioos:station:TCOON:013:1,2007-12-07T02:00:00Z,27.4847,-97.3181,0.0,20.9,11111222 
TCOON,ioos:station:TCOON:013:1,2007-12-07T03:00:00Z,27.4847,-97.3181,0.0,20.8,11111222 
TCOON,ioos:station:TCOON:013:1,2007-12-07T04:00:00Z,27.4847,-97.3181,0.0,20.7,11111222 
TCOON,ioos:station:TCOON:013:1,2007-12-07T05:00:00Z,27.4847,-97.3181,0.0,20.6,11111222 
TCOON,ioos:station:TCOON:013:1,2007-12-07T06:00:00Z,27.4847,-97.3181,0.0,20.5,11111222 
TCOON,ioos:station:TCOON:013:1,2007-12-07T07:00:00Z,27.4847,-97.3181,0.0,20.5,11111222 
TCOON,ioos:station:TCOON:013:1,2007-12-07T08:00:00Z,27.4847,-97.3181,0.0,20.4,11111222 
TCOON,ioos:station:TCOON:013:1,2007-12-07T09:00:00Z,27.4847,-97.3181,0.0,20.4,11111222 
TCOON,ioos:station:TCOON:013:1,2007-12-07T10:00:00Z,27.4847,-97.3181,0.0,20.4,11111222 
TCOON,ioos:station:TCOON:013:1,2007-12-07T11:00:00Z,27.4847,-97.3181,0.0,20.4,11111222 
TCOON,ioos:station:TCOON:013:1,2007-12-07T12:00:00Z,27.4847,-97.3181,0.0,20.4,11111222 
TCOON,ioos:station:TCOON:013:1,2007-12-07T13:00:00Z,27.4847,-97.3181,0.0,20.4,11111222 
TCOON,ioos:station:TCOON:013:1,2007-12-07T14:00:00Z,27.4847,-97.3181,0.0,20.4,11111222 
TCOON,ioos:station:TCOON:013:1,2007-12-07T15:00:00Z,27.4847,-97.3181,0.0,20.5,11111222 
TCOON,ioos:station:TCOON:013:1,2007-12-07T16:00:00Z,27.4847,-97.3181,0.0,20.6,11111222 
TCOON,ioos:station:TCOON:013:1,2007-12-07T17:00:00Z,27.4847,-97.3181,0.0,20.8,11111222 
TCOON,ioos:station:TCOON:013:1,2007-12-07T18:00:00Z,27.4847,-97.3181,0.0,21.5,11111222 
TCOON,ioos:station:TCOON:013:1,2007-12-07T19:00:00Z,27.4847,-97.3181,0.0,22.0,11111222 
TCOON,ioos:station:TCOON:013:1,2007-12-07T20:00:00Z,27.4847,-97.3181,0.0,22.5,11111222 
TCOON,ioos:station:TCOON:013:1,2007-12-07T21:00:00Z,27.4847,-97.3181,0.0,22.9,11111222 
TCOON,ioos:station:TCOON:013:1,2007-12-07T22:00:00Z,27.4847,-97.3181,0.0,23.0,11111222 
TCOON,ioos:station:TCOON:013:1,2007-12-07T23:00:00Z,27.4847,-97.3181,0.0,23.1,11111222 
TCOON,ioos:station:TCOON:013:1,2007-12-08T00:00:00Z,27.4847,-97.3181,0.0,23.0,11111222 
TCOON,ioos:station:TCOON:013:1,2007-12-08T01:00:00Z,27.4847,-97.3181,0.0,22.9,11111222 
TCOON,ioos:station:TCOON:013:1,2007-12-08T02:00:00Z,27.4847,-97.3181,0.0,22.8,11111222 
TCOON,ioos:station:TCOON:013:1,2007-12-08T03:00:00Z,27.4847,-97.3181,0.0,22.8,11111222 
TCOON,ioos:station:TCOON:013:1,2007-12-08T04:00:00Z,27.4847,-97.3181,0.0,22.7,11111222 
TCOON,ioos:station:TCOON:013:1,2007-12-08T05:00:00Z,27.4847,-97.3181,0.0,22.4,11111222 
TCOON,ioos:station:TCOON:013:1,2007-12-08T06:00:00Z,27.4847,-97.3181,0.0,22.4,11111222 
TCOON,ioos:station:TCOON:013:1,2007-12-08T07:00:00Z,27.4847,-97.3181,0.0,22.5,11111222 
TCOON,ioos:station:TCOON:013:1,2007-12-08T08:00:00Z,27.4847,-97.3181,0.0,22.5,11111222 
TCOON,ioos:station:TCOON:013:1,2007-12-08T09:00:00Z,27.4847,-97.3181,0.0,22.4,11111222 
TCOON,ioos:station:TCOON:013:1,2007-12-08T10:00:00Z,27.4847,-97.3181,0.0,22.4,11111222 
TCOON,ioos:station:TCOON:013:1,2007-12-08T11:00:00Z,27.4847,-97.3181,0.0,22.5,11111222 
TCOON,ioos:station:TCOON:013:1,2007-12-08T12:00:00Z,27.4847,-97.3181,0.0,22.5,11111222 
TCOON,ioos:station:TCOON:013:1,2007-12-08T13:00:00Z,27.4847,-97.3181,0.0,22.5,11111222 
TCOON,ioos:station:TCOON:013:1,2007-12-08T14:00:00Z,27.4847,-97.3181,0.0,22.4,11111222 
TCOON,ioos:station:TCOON:013:1,2007-12-08T15:00:00Z,27.4847,-97.3181,0.0,22.4,11111222 
TCOON,ioos:station:TCOON:013:1,2007-12-08T16:00:00Z,27.4847,-97.3181,0.0,22.7,11111222 
TCOON,ioos:station:TCOON:013:1,2007-12-08T17:00:00Z,27.4847,-97.3181,0.0,23.0,11111222 
TCOON,ioos:station:TCOON:013:1,2007-12-08T18:00:00Z,27.4847,-97.3181,0.0,23.4,11111222 
TCOON,ioos:station:TCOON:013:1,2007-12-08T19:00:00Z,27.4847,-97.3181,0.0,23.9,11111222 
TCOON,ioos:station:TCOON:013:1,2007-12-08T20:00:00Z,27.4847,-97.3181,0.0,24.5,11111222 
TCOON,ioos:station:TCOON:013:1,2007-12-08T21:00:00Z,27.4847,-97.3181,0.0,24.8,11111222 
TCOON,ioos:station:TCOON:013:1,2007-12-08T22:00:00Z,27.4847,-97.3181,0.0,24.8,11111222 
TCOON,ioos:station:TCOON:013:1,2007-12-08T23:00:00Z,27.4847,-97.3181,0.0,24.8,11111222 
TCOON,ioos:station:TCOON:013:1,2007-12-09T00:00:00Z,27.4847,-97.3181,0.0,24.6,11111222 
TCOON,ioos:station:TCOON:013:1,2007-12-09T01:00:00Z,27.4847,-97.3181,0.0,24.5,11111222 
TCOON,ioos:station:TCOON:013:1,2007-12-09T02:00:00Z,27.4847,-97.3181,0.0,24.4,11111222 
TCOON,ioos:station:TCOON:013:1,2007-12-09T03:00:00Z,27.4847,-97.3181,0.0,24.3,11111222 
TCOON,ioos:station:TCOON:013:1,2007-12-09T04:00:00Z,27.4847,-97.3181,0.0,24.1,11111222 
TCOON,ioos:station:TCOON:013:1,2007-12-09T05:00:00Z,27.4847,-97.3181,0.0,24.1,11111222 
TCOON,ioos:station:TCOON:013:1,2007-12-09T06:00:00Z,27.4847,-97.3181,0.0,24.0,11111222 
TCOON,ioos:station:TCOON:013:1,2007-12-09T07:00:00Z,27.4847,-97.3181,0.0,23.8,11111222 
TCOON,ioos:station:TCOON:013:1,2007-12-09T08:00:00Z,27.4847,-97.3181,0.0,23.7,11111222 
TCOON,ioos:station:TCOON:013:1,2007-12-09T09:00:00Z,27.4847,-97.3181,0.0,23.6,11111222 
TCOON,ioos:station:TCOON:013:1,2007-12-09T10:00:00Z,27.4847,-97.3181,0.0,23.5,11111222 
TCOON,ioos:station:TCOON:013:1,2007-12-09T11:00:00Z,27.4847,-97.3181,0.0,23.4,11111222 
TCOON,ioos:station:TCOON:013:1,2007-12-09T12:00:00Z,27.4847,-97.3181,0.0,23.3,11111222 
TCOON,ioos:station:TCOON:013:1,2007-12-09T13:00:00Z,27.4847,-97.3181,0.0,23.2,11111222 
TCOON,ioos:station:TCOON:013:1,2007-12-09T14:00:00Z,27.4847,-97.3181,0.0,23.1,11111222 
TCOON,ioos:station:TCOON:013:1,2007-12-09T15:00:00Z,27.4847,-97.3181,0.0,23.1,11111222 
TCOON,ioos:station:TCOON:013:1,2007-12-09T16:00:00Z,27.4847,-97.3181,0.0,23.4,11111222 
TCOON,ioos:station:TCOON:013:1,2007-12-09T17:00:00Z,27.4847,-97.3181,0.0,24.0,11111222 
TCOON,ioos:station:TCOON:013:1,2007-12-09T18:00:00Z,27.4847,-97.3181,0.0,24.3,11111222 
TCOON,ioos:station:TCOON:013:1,2007-12-09T19:00:00Z,27.4847,-97.3181,0.0,24.7,11111222 
TCOON,ioos:station:TCOON:013:1,2007-12-09T20:00:00Z,27.4847,-97.3181,0.0,25.2,11111222 
TCOON,ioos:station:TCOON:013:1,2007-12-09T21:00:00Z,27.4847,-97.3181,0.0,25.4,11111222 
TCOON,ioos:station:TCOON:013:1,2007-12-09T22:00:00Z,27.4847,-97.3181,0.0,25.4,11111222 
TCOON,ioos:station:TCOON:013:1,2007-12-09T23:00:00Z,27.4847,-97.3181,0.0,25.2,11111222 
TCOON,ioos:station:TCOON:013:1,2007-12-10T00:00:00Z,27.4847,-97.3181,0.0,25.1,11111222 
TCOON,ioos:station:TCOON:013:1,2007-12-10T01:00:00Z,27.4847,-97.3181,0.0,25.1,11111222 
TCOON,ioos:station:TCOON:013:1,2007-12-10T02:00:00Z,27.4847,-97.3181,0.0,25.1,11111222 
TCOON,ioos:station:TCOON:013:1,2007-12-10T03:00:00Z,27.4847,-97.3181,0.0,24.9,11111222 
TCOON,ioos:station:TCOON:013:1,2007-12-10T04:00:00Z,27.4847,-97.3181,0.0,24.6,11111222 
TCOON,ioos:station:TCOON:013:1,2007-12-10T05:00:00Z,27.4847,-97.3181,0.0,24.4,11111222 
TCOON,ioos:station:TCOON:013:1,2007-12-10T06:00:00Z,27.4847,-97.3181,0.0,24.2,11111222 
TCOON,ioos:station:TCOON:013:1,2007-12-10T07:00:00Z,27.4847,-97.3181,0.0,24.2,11111222 
TCOON,ioos:station:TCOON:013:1,2007-12-10T08:00:00Z,27.4847,-97.3181,0.0,24.1,11111222 
TCOON,ioos:station:TCOON:013:1,2007-12-10T09:00:00Z,27.4847,-97.3181,0.0,24.0,11111222 
TCOON,ioos:station:TCOON:013:1,2007-12-10T10:00:00Z,27.4847,-97.3181,0.0,24.0,11111222 
TCOON,ioos:station:TCOON:013:1,2007-12-10T11:00:00Z,27.4847,-97.3181,0.0,23.9,11111222 
TCOON,ioos:station:TCOON:013:1,2007-12-10T12:00:00Z,27.4847,-97.3181,0.0,23.9,11111222 
TCOON,ioos:station:TCOON:013:1,2007-12-10T13:00:00Z,27.4847,-97.3181,0.0,23.9,11111222 
TCOON,ioos:station:TCOON:013:1,2007-12-10T14:00:00Z,27.4847,-97.3181,0.0,23.8,11111222 
TCOON,ioos:station:TCOON:013:1,2007-12-10T15:00:00Z,27.4847,-97.3181,0.0,23.7,11111222 
TCOON,ioos:station:TCOON:013:1,2007-12-10T16:00:00Z,27.4847,-97.3181,0.0,24.0,11111222 
TCOON,ioos:station:TCOON:013:1,2007-12-10T17:00:00Z,27.4847,-97.3181,0.0,24.4,11111222 
TCOON,ioos:station:TCOON:013:1,2007-12-10T19:00:00Z,27.4847,-97.3181,0.0,25.3,11111222 
TCOON,ioos:station:TCOON:013:1,2007-12-10T20:00:00Z,27.4847,-97.3181,0.0,25.7,11111222 
TCOON,ioos:station:TCOON:013:1,2007-12-10T21:00:00Z,27.4847,-97.3181,0.0,25.9,11111222 
TCOON,ioos:station:TCOON:013:1,2007-12-10T22:00:00Z,27.4847,-97.3181,0.0,26.0,11111222 
TCOON,ioos:station:TCOON:013:1,2007-12-10T23:00:00Z,27.4847,-97.3181,0.0,25.8,11111222 
TCOON,ioos:station:TCOON:013:1,2007-12-11T00:00:00Z,27.4847,-97.3181,0.0,25.7,11111222 
TCOON,ioos:station:TCOON:013:1,2007-12-11T01:00:00Z,27.4847,-97.3181,0.0,25.5,11111222 
TCOON,ioos:station:TCOON:013:1,2007-12-11T02:00:00Z,27.4847,-97.3181,0.0,25.4,11111222 
TCOON,ioos:station:TCOON:013:1,2007-12-11T03:00:00Z,27.4847,-97.3181,0.0,25.2,11111222 
TCOON,ioos:station:TCOON:013:1,2007-12-11T04:00:00Z,27.4847,-97.3181,0.0,25.1,11111222 
TCOON,ioos:station:TCOON:013:1,2007-12-11T05:00:00Z,27.4847,-97.3181,0.0,24.8,11111222 
TCOON,ioos:station:TCOON:013:1,2007-12-11T06:00:00Z,27.4847,-97.3181,0.0,24.7,11111222 
TCOON,ioos:station:TCOON:013:1,2007-12-11T07:00:00Z,27.4847,-97.3181,0.0,24.5,11111222 
TCOON,ioos:station:TCOON:013:1,2007-12-11T08:00:00Z,27.4847,-97.3181,0.0,24.2,11111222 
TCOON,ioos:station:TCOON:013:1,2007-12-11T09:00:00Z,27.4847,-97.3181,0.0,24.2,11111222 
TCOON,ioos:station:TCOON:013:1,2007-12-11T10:00:00Z,27.4847,-97.3181,0.0,24.1,11111222 
TCOON,ioos:station:TCOON:013:1,2007-12-11T11:00:00Z,27.4847,-97.3181,0.0,24.1,11111222 
TCOON,ioos:station:TCOON:013:1,2007-12-11T12:00:00Z,27.4847,-97.3181,0.0,24.0,11111222 
TCOON,ioos:station:TCOON:013:1,2007-12-11T13:00:00Z,27.4847,-97.3181,0.0,24.1,11111222 
TCOON,ioos:station:TCOON:013:1,2007-12-11T14:00:00Z,27.4847,-97.3181,0.0,24.1,11111222 
TCOON,ioos:station:TCOON:013:1,2007-12-11T15:00:00Z,27.4847,-97.3181,0.0,24.1,11111222 
TCOON,ioos:station:TCOON:013:1,2007-12-11T16:00:00Z,27.4847,-97.3181,0.0,24.3,11111222 
TCOON,ioos:station:TCOON:013:1,2007-12-11T17:00:00Z,27.4847,-97.3181,0.0,24.6,11111222 
TCOON,ioos:station:TCOON:013:1,2007-12-11T18:00:00Z,27.4847,-97.3181,0.0,24.9,11111222 
TCOON,ioos:station:TCOON:013:1,2007-12-11T19:00:00Z,27.4847,-97.3181,0.0,25.3,11111222 
TCOON,ioos:station:TCOON:013:1,2007-12-11T20:00:00Z,27.4847,-97.3181,0.0,25.4,11111222 
TCOON,ioos:station:TCOON:013:1,2007-12-11T21:00:00Z,27.4847,-97.3181,0.0,25.7,11111222 
TCOON,ioos:station:TCOON:013:1,2007-12-11T22:00:00Z,27.4847,-97.3181,0.0,25.8,11111222 
TCOON,ioos:station:TCOON:013:1,2007-12-11T23:00:00Z,27.4847,-97.3181,0.0,25.6,11111222 
TCOON,ioos:station:TCOON:013:1,2007-12-12T00:00:00Z,27.4847,-97.3181,0.0,25.4,11111222 
TCOON,ioos:station:TCOON:013:1,2007-12-12T01:00:00Z,27.4847,-97.3181,0.0,25.1,11111222 
TCOON,ioos:station:TCOON:013:1,2007-12-12T02:00:00Z,27.4847,-97.3181,0.0,25.0,11111222 
TCOON,ioos:station:TCOON:013:1,2007-12-12T03:00:00Z,27.4847,-97.3181,0.0,24.9,11111222 
TCOON,ioos:station:TCOON:013:1,2007-12-12T04:00:00Z,27.4847,-97.3181,0.0,24.8,11111222 
TCOON,ioos:station:TCOON:013:1,2007-12-12T05:00:00Z,27.4847,-97.3181,0.0,24.8,11111222 
TCOON,ioos:station:TCOON:013:1,2007-12-12T06:00:00Z,27.4847,-97.3181,0.0,24.7,11111222 
TCOON,ioos:station:TCOON:013:1,2007-12-12T07:00:00Z,27.4847,-97.3181,0.0,24.7,11111222 
TCOON,ioos:station:TCOON:013:1,2007-12-12T08:00:00Z,27.4847,-97.3181,0.0,24.6,11111222 
TCOON,ioos:station:TCOON:013:1,2007-12-12T09:00:00Z,27.4847,-97.3181,0.0,24.6,11111222 
TCOON,ioos:station:TCOON:013:1,2007-12-12T10:00:00Z,27.4847,-97.3181,0.0,24.6,11111222 
TCOON,ioos:station:TCOON:013:1,2007-12-12T11:00:00Z,27.4847,-97.3181,0.0,24.6,11111222 
TCOON,ioos:station:TCOON:013:1,2007-12-12T12:00:00Z,27.4847,-97.3181,0.0,24.6,11111222 
TCOON,ioos:station:TCOON:013:1,2007-12-12T13:00:00Z,27.4847,-97.3181,0.0,24.4,11111222 
TCOON,ioos:station:TCOON:013:1,2007-12-12T14:00:00Z,27.4847,-97.3181,0.0,24.4,11111222 
TCOON,ioos:station:TCOON:013:1,2007-12-12T15:00:00Z,27.4847,-97.3181,0.0,24.3,11111222 
TCOON,ioos:station:TCOON:013:1,2007-12-12T16:00:00Z,27.4847,-97.3181,0.0,24.3,11111222 
TCOON,ioos:station:TCOON:013:1,2007-12-12T17:00:00Z,27.4847,-97.3181,0.0,24.4,11111222 
TCOON,ioos:station:TCOON:013:1,2007-12-12T18:00:00Z,27.4847,-97.3181,0.0,25.1,11111222 
TCOON,ioos:station:TCOON:013:1,2007-12-12T19:00:00Z,27.4847,-97.3181,0.0,25.5,11111222 
TCOON,ioos:station:TCOON:013:1,2007-12-12T20:00:00Z,27.4847,-97.3181,0.0,25.6,11111222 
TCOON,ioos:station:TCOON:013:1,2007-12-12T21:00:00Z,27.4847,-97.3181,0.0,25.6,11111222 
TCOON,ioos:station:TCOON:013:1,2007-12-12T22:00:00Z,27.4847,-97.3181,0.0,25.6,11111222 
TCOON,ioos:station:TCOON:013:1,2007-12-12T23:00:00Z,27.4847,-97.3181,0.0,25.0,11111222 
TCOON,ioos:station:TCOON:013:1,2007-12-13T00:00:00Z,27.4847,-97.3181,0.0,24.7,11111222 
TCOON,ioos:station:TCOON:013:1,2007-12-13T01:00:00Z,27.4847,-97.3181,0.0,23.9,11111222 
TCOON,ioos:station:TCOON:013:1,2007-12-13T02:00:00Z,27.4847,-97.3181,0.0,23.4,11111222 
TCOON,ioos:station:TCOON:013:1,2007-12-13T03:00:00Z,27.4847,-97.3181,0.0,22.8,11111222 
TCOON,ioos:station:TCOON:013:1,2007-12-13T04:00:00Z,27.4847,-97.3181,0.0,22.3,11111222 
TCOON,ioos:station:TCOON:013:1,2007-12-13T05:00:00Z,27.4847,-97.3181,0.0,22.1,11111222 
TCOON,ioos:station:TCOON:013:1,2007-12-13T06:00:00Z,27.4847,-97.3181,0.0,21.9,11111222 
TCOON,ioos:station:TCOON:013:1,2007-12-13T07:00:00Z,27.4847,-97.3181,0.0,21.6,11111222 
TCOON,ioos:station:TCOON:013:1,2007-12-13T08:00:00Z,27.4847,-97.3181,0.0,21.4,11111222 
TCOON,ioos:station:TCOON:013:1,2007-12-13T09:00:00Z,27.4847,-97.3181,0.0,21.3,11111222 